• In Uzbekistan
  • List of Countries
  • For 7 days
  • Water Temperature
  • Satellite Maps
  • Weather Map
  • Weather Widgets
  • user-avatar
    Login

    Hourly Weather Cacapava

    Today, 22 February, Thursday

    Time Temperature Precipitation Wind Pressure Humidity
    00:00 +22°C° 0 mm 1 mps 709 mmHg 93%
    01:00 +22°C° 0 mm 1 mps 709 mmHg 94%
    02:00 +22°C° 0 mm 1 mps 709 mmHg 94%
    03:00 +22°C° 0 mm 1 mps 708 mmHg 94%
    04:00 +21°C° 0 mm 1 mps 709 mmHg 94%
    05:00 +19°C° 0 mm 0 mps 709 mmHg 94%
    06:00 +19°C° 0 mm 0 mps 709 mmHg 94%
    07:00 +22°C° 0 mm 0 mps 709 mmHg 87%
    08:00 +24°C° 0 mm 0 mps 710 mmHg 79%
    09:00 +26°C° 0 mm 0 mps 710 mmHg 72%
    10:00 +28°C° 0.1 mm 0 mps 710 mmHg 67%
    11:00 +31°C° 0.1 mm 1 mps 710 mmHg 62%
    12:00 +32°C° 0.1 mm 1 mps 710 mmHg 56%
    13:00 +32°C° 0.5 mm 1 mps 710 mmHg 61%
    14:00 +31°C° 0.5 mm 2 mps 710 mmHg 66%
    15:00 +30°C° 0.5 mm 2 mps 709 mmHg 71%
    16:00 +29°C° 0.6 mm 2 mps 709 mmHg 78%
    17:00 +27°C° 0.6 mm 2 mps 709 mmHg 85%
    18:00 +26°C° 0.6 mm 1 mps 709 mmHg 91%
    19:00 +25°C° 0.1 mm 1 mps 709 mmHg 93%
    20:00 +24°C° 0.1 mm 1 mps 710 mmHg 95%
    21:00 +23°C° 0.1 mm 1 mps 710 mmHg 97%
    22:00 +23°C° 0 mm 1 mps 710 mmHg 97%
    23:00 +23°C° 0 mm 1 mps 710 mmHg 97%

    Tomorrow, 23 February, Friday

    Time Temperature Precipitation Wind Pressure Humidity
    00:00 +22°C° 0 mm 1 mps 711 mmHg 98%
    01:00 +22°C° 0.1 mm 1 mps 710 mmHg 98%
    02:00 +22°C° 0.1 mm 1 mps 710 mmHg 97%
    03:00 +22°C° 0.1 mm 1 mps 710 mmHg 97%
    04:00 +22°C° 0 mm 1 mps 710 mmHg 97%
    05:00 +22°C° 0 mm 1 mps 710 mmHg 97%
    06:00 +22°C° 0 mm 1 mps 710 mmHg 97%
    07:00 +23°C° 0 mm 1 mps 711 mmHg 91%
    08:00 +24°C° 0 mm 1 mps 711 mmHg 85%
    09:00 +26°C° 0 mm 1 mps 712 mmHg 79%
    10:00 +27°C° 0 mm 2 mps 712 mmHg 73%
    11:00 +28°C° 0 mm 2 mps 712 mmHg 67%
    12:00 +29°C° 0 mm 2 mps 712 mmHg 61%
    13:00 +29°C° 0.1 mm 2 mps 712 mmHg 63%
    14:00 +29°C° 0.1 mm 3 mps 711 mmHg 66%
    15:00 +28°C° 0.1 mm 3 mps 711 mmHg 69%
    16:00 +27°C° 0.1 mm 3 mps 711 mmHg 76%
    17:00 +25°C° 0.1 mm 3 mps 711 mmHg 82%
    18:00 +24°C° 0.1 mm 2 mps 711 mmHg 88%
    19:00 +23°C° 0 mm 2 mps 711 mmHg 90%
    20:00 +21°C° 0 mm 2 mps 712 mmHg 93%
    21:00 +21°C° 0 mm 1 mps 712 mmHg 95%
    22:00 +21°C° 0 mm 1 mps 712 mmHg 96%
    23:00 +20°C° 0 mm 1 mps 712 mmHg 96%

    Day after tomorrow, 24 February, Saturday

    Time Temperature Precipitation Wind Pressure Humidity
    00:00 +20°C° 0 mm 1 mps 712 mmHg 97%
    01:00 +20°C° 0 mm 1 mps 712 mmHg 97%
    02:00 +19°C° 0 mm 1 mps 711 mmHg 97%
    03:00 +19°C° 0 mm 1 mps 711 mmHg 97%
    04:00 +19°C° 0 mm 1 mps 711 mmHg 97%
    05:00 +18°C° 0 mm 1 mps 711 mmHg 97%
    06:00 +18°C° 0 mm 1 mps 711 mmHg 97%
    07:00 +21°C° 0 mm 1 mps 712 mmHg 88%
    08:00 +23°C° 0 mm 1 mps 713 mmHg 78%
    09:00 +25°C° 0 mm 1 mps 713 mmHg 69%
    10:00 +27°C° 0 mm 1 mps 713 mmHg 65%
    11:00 +28°C° 0 mm 2 mps 713 mmHg 60%
    12:00 +30°C° 0 mm 2 mps 713 mmHg 55%
    13:00 +29°C° 0 mm 2 mps 713 mmHg 58%
    14:00 +29°C° 0 mm 3 mps 712 mmHg 61%
    15:00 +28°C° 0 mm 3 mps 711 mmHg 64%
    16:00 +27°C° 0 mm 3 mps 712 mmHg 70%
    17:00 +25°C° 0 mm 3 mps 712 mmHg 76%
    18:00 +24°C° 0 mm 3 mps 712 mmHg 82%
    19:00 +23°C° 0 mm 2 mps 712 mmHg 87%
    20:00 +20°C° 0 mm 2 mps 712 mmHg 91%
    21:00 +20°C° 0 mm 1 mps 713 mmHg 96%
    22:00 +20°C° 0 mm 1 mps 713 mmHg 96%
    23:00 +19°C° 0 mm 1 mps 713 mmHg 96%

    25 February, Sunday

    Time Temperature Precipitation Wind Pressure Humidity
    00:00 +19°C° 0 mm 1 mps 713 mmHg 96%
    01:00 +19°C° 0 mm 1 mps 712 mmHg 96%
    02:00 +18°C° 0 mm 1 mps 712 mmHg 96%
    03:00 +18°C° 0 mm 1 mps 711 mmHg 96%
    04:00 +18°C° 0 mm 1 mps 712 mmHg 95%
    05:00 +18°C° 0 mm 1 mps 712 mmHg 95%
    06:00 +18°C° 0 mm 1 mps 712 mmHg 95%
    07:00 +21°C° 0 mm 1 mps 713 mmHg 85%
    08:00 +23°C° 0 mm 1 mps 713 mmHg 75%
    09:00 +26°C° 0 mm 1 mps 714 mmHg 65%
    10:00 +27°C° 0 mm 1 mps 714 mmHg 62%
    11:00 +28°C° 0 mm 1 mps 714 mmHg 59%
    12:00 +29°C° 0 mm 2 mps 714 mmHg 56%
    13:00 +29°C° 0.1 mm 2 mps 713 mmHg 61%
    14:00 +28°C° 0.1 mm 2 mps 712 mmHg 65%
    15:00 +27°C° 0.1 mm 2 mps 712 mmHg 69%
    16:00 +26°C° 0.1 mm 2 mps 712 mmHg 75%
    17:00 +25°C° 0.1 mm 2 mps 712 mmHg 81%
    18:00 +24°C° 0.1 mm 2 mps 712 mmHg 86%
    19:00 +23°C° 0 mm 2 mps 712 mmHg 89%
    20:00 +22°C° 0 mm 1 mps 712 mmHg 93%
    21:00 +21°C° 0 mm 1 mps 712 mmHg 96%
    22:00 +21°C° 0 mm 1 mps 712 mmHg 96%
    23:00 +21°C° 0 mm 1 mps 712 mmHg 96%

    26 February, Monday

    Time Temperature Precipitation Wind Pressure Humidity
    00:00 +20°C° 0 mm 1 mps 712 mmHg 97%
    01:00 +20°C° 0 mm 1 mps 712 mmHg 96%
    02:00 +20°C° 0 mm 1 mps 711 mmHg 96%
    03:00 +20°C° 0 mm 1 mps 711 mmHg 95%
    04:00 +21°C° 0.1 mm 1 mps 711 mmHg 94%
    05:00 +21°C° 0.1 mm 1 mps 711 mmHg 94%
    06:00 +19°C° 0.1 mm 0 mps 711 mmHg 93%
    07:00 +22°C° 0.2 mm 1 mps 712 mmHg 90%
    08:00 +23°C° 0.2 mm 1 mps 712 mmHg 88%
    09:00 +24°C° 0.2 mm 1 mps 713 mmHg 85%
    10:00 +24°C° 0.4 mm 1 mps 713 mmHg 85%
    11:00 +25°C° 0.4 mm 1 mps 712 mmHg 84%
    12:00 +25°C° 0.4 mm 1 mps 712 mmHg 83%
    13:00 +25°C° 0.6 mm 1 mps 712 mmHg 84%
    14:00 +25°C° 0.6 mm 1 mps 711 mmHg 86%
    15:00 +25°C° 0.6 mm 1 mps 711 mmHg 87%
    16:00 +24°C° 0.8 mm 1 mps 711 mmHg 90%
    17:00 +24°C° 0.8 mm 1 mps 711 mmHg 92%
    18:00 +23°C° 0.8 mm 1 mps 711 mmHg 95%
    19:00 +23°C° 0.4 mm 1 mps 711 mmHg 96%
    20:00 +23°C° 0.4 mm 1 mps 711 mmHg 96%
    21:00 +22°C° 0.4 mm 1 mps 711 mmHg 97%
    22:00 +22°C° 0.1 mm 1 mps 711 mmHg 97%
    23:00 +22°C° 0.1 mm 1 mps 711 mmHg 97%

    27 February, Tuesday

    Time Temperature Precipitation Wind Pressure Humidity
    00:00 +22°C° 0.1 mm 1 mps 711 mmHg 97%
    01:00 +22°C° 0.2 mm 1 mps 711 mmHg 97%
    02:00 +22°C° 0.2 mm 1 mps 710 mmHg 97%
    03:00 +22°C° 0.2 mm 1 mps 710 mmHg 97%
    04:00 +21°C° 0 mm 1 mps 710 mmHg 97%
    05:00 +19°C° 0 mm 0 mps 710 mmHg 97%
    06:00 +19°C° 0 mm 0 mps 711 mmHg 97%
    07:00 +23°C° 0 mm 1 mps 711 mmHg 92%
    08:00 +24°C° 0 mm 1 mps 712 mmHg 87%
    09:00 +26°C° 0 mm 1 mps 712 mmHg 82%
    10:00 +27°C° 0.5 mm 1 mps 712 mmHg 80%
    11:00 +28°C° 0.5 mm 1 mps 712 mmHg 78%
    12:00 +29°C° 0.5 mm 1 mps 712 mmHg 76%
    13:00 +28°C° 1.5 mm 1 mps 711 mmHg 81%
    14:00 +27°C° 1.5 mm 1 mps 711 mmHg 86%
    15:00 +26°C° 1.5 mm 1 mps 710 mmHg 91%
    16:00 +25°C° 0.7 mm 1 mps 710 mmHg 92%
    17:00 +24°C° 0.7 mm 1 mps 710 mmHg 93%
    18:00 +24°C° 0.7 mm 1 mps 710 mmHg 94%
    19:00 +23°C° 0.1 mm 1 mps 711 mmHg 95%
    20:00 +23°C° 0.1 mm 1 mps 711 mmHg 96%
    21:00 +23°C° 0.1 mm 1 mps 711 mmHg 97%
    22:00 +22°C° 0 mm 1 mps 711 mmHg 97%
    23:00 +22°C° 0 mm 1 mps 711 mmHg 97%
    Show more